User: anonymous   Login
Location: Fort Wayne
(41.1310°N, 85.1290°W)
Time: 11:01:16
(UTC-04:00)
Language:

COSMOS 2406 - Orbit

View from above orbital plane
View from above orbital plane
View from above satellite
View from above satellite

Ground track
Ground track

The orbit data is extracted from the following two-line orbital elements,

1 28352U 04021A   16120.53397258 -.00000008  00000-0  21635-4 0  9999
2 28352  71.0044 268.2938 0014476 353.7329   6.3608 14.11453531612471
Epoch (UTC): 29 April 2016 12:48:55
Eccentricity: 0.0014476
inclination: 71.0044°
perigee height: 844 km
apogee height: 865 km
right ascension of ascending node: 268.2938°
argument of perigee: 353.7329°
revolutions per day: 14.11453531
mean anomaly at epoch: 6.3608°
orbit number at epoch: 61247

The dashed part of the orbit path shows where the satellite is in the earth's shadow,  

DLR